CW8095 Weather Reports


time (UTC)temp
C
wind
direction
speed
KPH
gust
KPH
rain 1hr
cm
rain 24hr
cm
rain mn
cm
humidity
%
barometer
mb
20260506032530 23 240 3.2 12.9 0.00 0.00 0.00 58 1008.0
20260506031531 24 291 3.2 11.3 0.00 0.00 0.00 58 1008.1
20260506030530 24 221 4.8 11.3 0.00 0.00 0.00 57 1008.1
20260506025525 25 252 8.0 20.9 0.00 0.00 0.00 57 1007.9
20260506024520 25 254 6.4 17.7 0.00 0.00 0.00 57 1007.6
20260506023515 25 38 4.8 14.5 0.00 0.00 0.00 56 1007.3
20260506022526 25 23 4.8 17.7 0.00 0.00 0.00 56 1007.0
20260506021521 26 358 4.8 11.3 0.00 0.00 0.00 56 1006.6
20260506020536 26 18 4.8 12.9 0.00 0.00 0.00 55 1006.3
20260506015547 27 27 6.4 14.5 0.00 0.00 0.00 54 1006.2
20260506014522 27 71 8.0 12.9 0.00 0.00 0.00 54 1005.9
20260506013517 27 51 4.8 11.3 0.00 0.00 0.00 53 1005.7
20260506012548 28 31 6.4 14.5 0.00 0.00 0.00 53 1005.6
20260506011523 28 82 3.2 9.7 0.00 0.00 0.00 52 1005.8
20260506010558 29 278 1.6 3.2 0.00 0.00 0.00 52 1005.5
20260506005529 29 117 0.0 4.8 0.00 0.00 0.00 53 1005.1
20260506004523 30 266 1.6 4.8 0.00 0.00 0.00 59 1005.2
20260506003519 30 167 1.6 4.8 0.00 0.00 0.00 62 1005.0
20260506002549 30 144 1.6 4.8 0.00 0.00 0.00 61 1005.0
20260506001524 30 141 4.8 11.3 0.00 0.00 0.00 61 1004.8
20260506000519 31 158 3.2 11.3 0.00 0.00 0.00 58 1004.4
20260505235529 31 163 4.8 14.5 0.00 0.00 0.00 58 1004.4
20260505234523 31 180 6.4 16.1 0.00 0.00 0.00 57 1004.2
20260505233519 32 147 8.0 20.9 0.00 0.00 0.00 55 1004.4
20260505232529 32 163 8.0 17.7 0.00 0.00 0.00 53 1004.1
20260505231523 33 154 4.8 12.9 0.00 0.00 0.00 52 1004.2
20260505230538 34 158 8.0 17.7 0.00 0.00 0.00 51 1004.1
20260505225528 33 147 8.0 20.9 0.00 0.00 0.00 51 1003.9
20260505224523 34 176 8.0 17.7 0.00 0.00 0.00 50 1003.9
20260505223517 34 155 4.8 14.5 0.00 0.00 0.00 46 1003.8
20260505222527 34 150 6.4 16.1 0.00 0.00 0.00 46 1003.7
20260505221522 35 152 8.0 20.9 0.00 0.00 0.00 45 1003.7
20260505220517 35 170 6.4 16.1 0.00 0.00 0.00 44 1003.6
20260505215528 35 125 3.2 11.3 0.00 0.00 0.00 44 1003.6
20260505214522 35 173 4.8 17.7 0.00 0.00 0.00 44 1003.8
20260505213517 35 184 4.8 14.5 0.00 0.00 0.00 44 1003.7
20260505212526 35 155 4.8 12.9 0.00 0.00 0.00 43 1003.9
20260505211520 36 194 6.4 14.5 0.00 0.00 0.00 44 1004.0
20260505210535 35 151 4.8 12.9 0.00 0.00 0.00 44 1004.3
20260505205525 35 158 6.4 16.1 0.00 0.00 0.00 44 1004.3
20260505204517 34 164 4.8 16.1 0.00 0.00 0.00 45 1004.2
20260505203527 35 178 6.4 17.7 0.00 0.00 0.00 43 1004.7
20260505202520 35 142 3.2 14.5 0.00 0.00 0.00 44 1004.7
20260505201515 35 129 3.2 20.9 0.00 0.00 0.00 44 1004.8
20260505200524 34 129 3.2 14.5 0.00 0.00 0.00 46 1004.9
20260505195519 33 133 6.4 16.1 0.00 0.00 0.00 46 1004.9
20260505194529 33 164 4.8 16.1 0.00 0.00 0.00 47 1004.8
20260505193524 33 156 6.4 22.5 0.00 0.00 0.00 47 1004.9
20260505192520 33 177 9.7 25.7 0.00 0.00 0.00 48 1005.0
20260505191530 33 151 8.0 29.0 0.00 0.00 0.00 48 1005.0
20260505190545 33 161 8.0 27.4 0.00 0.00 0.00 51 1005.2
20260505185540 33 168 8.0 20.9 0.00 0.00 0.00 51 1005.3
20260505184515 33 151 8.0 22.5 0.00 0.00 0.00 50 1005.5
20260505183525 33 142 8.0 27.4 0.00 0.00 0.00 49 1005.5
20260505182540 33 121 4.8 14.5 0.00 0.00 0.00 51 1005.6
20260505181516 32 157 8.0 24.1 0.00 0.00 0.00 52 1005.6
20260505180525 32 162 4.8 17.7 0.00 0.00 0.00 51 1005.6
20260505175540 32 150 8.0 17.7 0.00 0.00 0.00 52 1005.6
20260505174516 31 165 9.7 30.6 0.00 0.00 0.00 54 1005.7
20260505173526 31 173 6.4 22.5 0.00 0.00 0.00 53 1005.8
20260505172601 31 148 6.4 17.7 0.00 0.00 0.00 54 1005.6
20260505171516 31 149 6.4 17.7 0.00 0.00 0.00 55 1005.8
20260505170526 31 167 6.4 25.7 0.00 0.00 0.00 56 1005.7
20260505165521 30 147 8.0 20.9 0.00 0.00 0.00 57 1005.6
20260505164516 30 181 11.3 25.7 0.00 0.00 0.00 58 1005.4
20260505163525 29 153 9.7 22.5 0.00 0.00 0.00 59 1005.3
20260505162520 29 169 12.9 33.8 0.00 0.00 0.00 59 1005.4
20260505161528 30 173 11.3 27.4 0.00 0.00 0.00 59 1005.7
20260505160521 28 162 9.7 27.4 0.00 0.00 0.00 61 1005.6
20260505152527 27 151 9.7 24.1 0.00 0.00 0.00 64 1005.9
20260505151601 27 167 9.7 24.1 0.00 0.00 0.00 65 1005.8
20260505150516 26 184 12.9 35.4 0.00 0.00 0.00 67 1005.7
20260505140516 25 164 9.7 22.5 0.00 0.00 0.00 70 1005.4
20260505124521 21 171 6.4 22.5 0.00 0.00 0.00 83 1005.0
20260505123516 21 171 6.4 16.1 0.00 0.00 0.00 84 1004.9
20260505122546 21 191 9.7 22.5 0.00 0.00 0.00 85 1004.9
20260505121540 21 172 9.7 22.5 0.00 0.00 0.00 85 1004.7
20260505120529 20 177 8.0 20.9 0.00 0.00 0.00 86 1004.5
20260505115523 20 162 9.7 20.9 0.00 0.00 0.00 87 1004.7
20260505114518 20 176 9.7 22.5 0.00 0.00 0.00 87 1004.5
20260505113528 20 169 9.7 17.7 0.00 0.00 0.00 87 1004.4
20260505112523 20 175 9.7 24.1 0.00 0.00 0.00 87 1004.6
20260505111539 20 168 9.7 22.5 0.00 0.00 0.00 86 1004.4
20260505110529 20 180 9.7 24.1 0.00 0.00 0.00 86 1004.2
20260505101600 21 184 11.3 25.7 0.00 0.00 0.00 84 1004.5
20260505100530 21 159 9.7 24.1 0.00 0.00 0.00 83 1004.4
20260505095524 21 181 9.7 29.0 0.00 0.00 0.00 83 1004.3
20260505094520 21 165 11.3 27.4 0.00 0.00 0.00 82 1004.5
20260505093530 21 160 9.7 30.6 0.00 0.00 0.00 82 1004.5
20260505092605 21 162 11.3 33.8 0.00 0.00 0.00 83 1004.6
20260505091520 21 168 8.0 17.7 0.00 0.00 0.00 83 1004.8
20260505090515 21 172 8.0 22.5 0.00 0.00 0.00 83 1004.8
20260505085525 21 166 9.7 22.5 0.00 0.00 0.00 82 1004.7
20260505084520 21 156 11.3 30.6 0.00 0.00 0.00 82 1004.7
20260505083515 21 165 9.7 25.7 0.00 0.00 0.00 82 1004.8
20260505082525 21 176 8.0 22.5 0.00 0.00 0.00 82 1004.8
20260505081519 21 179 8.0 22.5 0.00 0.00 0.00 81 1004.9
20260505080549 21 178 11.3 30.6 0.00 0.00 0.00 81 1005.0
20260505075524 21 178 11.3 22.5 0.00 0.00 0.00 81 1005.2
20260505074519 21 172 9.7 22.5 0.00 0.00 0.00 80 1005.2
20260505073529 21 173 11.3 27.4 0.00 0.00 0.00 80 1005.3
20260505072518 21 173 12.9 25.7 0.00 0.00 0.00 80 1005.6
20260505071528 22 166 11.3 25.7 0.00 0.00 0.00 79 1005.7
20260505070523 22 173 11.3 29.0 0.00 0.00 0.00 79 1005.9
20260505065520 22 156 9.7 24.1 0.00 0.00 0.00 78 1006.0
20260505064518 22 171 9.7 27.4 0.00 0.00 0.00 78 1006.2
20260505063550 22 176 9.7 20.9 0.00 0.00 0.00 77 1006.3
20260505062533 22 170 9.7 24.1 0.00 0.00 0.00 77 1006.3
20260505061532 22 158 9.7 20.9 0.00 0.00 0.00 76 1006.5
20260505060531 22 174 9.7 25.7 0.00 0.00 0.00 75 1006.2
20260505055532 22 163 8.0 17.7 0.00 0.00 0.00 74 1006.1
20260505054526 22 165 6.4 17.7 0.00 0.00 0.00 73 1006.2
20260505053523 22 160 6.4 12.9 0.00 0.00 0.00 72 1006.2
20260505053041 22 165 6.4 20.9 0.00 0.00 0.00 72 1006.5
20260505052032 23 165 6.4 12.9 0.00 0.00 0.00 71 1006.5
20260505051044 23 162 6.4 17.7 0.00 0.00 0.00 70 1006.5
20260505041042 23 169 8.0 24.1 0.00 0.00 0.00 68 1006.6
20260505040017 23 170 6.4 20.9 0.00 0.00 0.00 68 1006.7
20260505035027 23 173 8.0 20.9 0.00 0.00 0.00 68 1006.7
20260505034026 23 170 9.7 25.7 0.00 0.00 0.00 68 1006.4